Regional Weather Roundup
Issued by NWS

Home | Current Version | Previous Version | Text Only | Print | Product List | Glossary Off
Versions: 1 2 3 4 5 6 7 8 9 10 11 12 13 14 15 16 17 18 19 20 21 22 23 24 25 26 27 28 29 30 31 32 33 34 35 36 37 38 39 40 41 42 43 44 45 46 47 48 49 50

000
ASUS43 KMKX 080521
RWRWI

WISCONSIN REGIONAL WEATHER ROUNDUP
NATIONAL WEATHER SERVICE MILWAUKEE/SULLIVAN WI
1100 PM CST WED DEC 07 2016

NOTE: "FAIR" INDICATES FEW OR NO CLOUDS BELOW 12,000 FEET WITH NO
SIGNIFICANT WEATHER AND/OR OBSTRUCTIONS TO VISIBILITY.

WIZ001-002-006>008-014>016-023>028-080600-
NORTHWEST WISCONSIN

CITY           SKY/WX    TMP DP  RH WIND       PRES   REMARKS
SUPERIOR ARPT  CLOUDY    20  15  81 W10       29.99R WCI   9
ASHLAND        LGT SNOW  18  14  84 SW12      29.94R FOG     WCI   5
HAYWARD        LGT SNOW  16  11  80 W9        29.97R WCI   4
SIREN          LGT SNOW  17  12  82 W12G18    30.04R WCI   4
CUMBERLAND     LGT SNOW  14  10  85 W15G23    30.02R WCI  -1
RICE LAKE      LGT SNOW  16  10  79 W14G20    30.04R WCI   1
CHETEK         FLURRIES  15  10  79 W7        30.04R WCI   5
LADYSMITH      FLURRIES  15  10  80 SW9       30.01R WCI   4
EAU CLAIRE     LGT SNOW  17  10  74 W15       30.07R WCI   2
MENOMONIE      CLOUDY    18  11  75 W14       30.08S WCI   4
NEW RICHMOND   FLURRIES  16  10  75 W14G20    30.09R WCI   2
OSCEOLA        FLURRIES  17  11  78 W15       30.13R WCI   2
$$

WIZ003>005-009-010-017-018-080600-
NORTH CENTRAL WISCONSIN

CITY           SKY/WX    TMP DP  RH WIND       PRES   REMARKS
MANITOWISH WTR LGT SNOW  14  11  87 W13       29.88R WCI   0
ARBOR VITAE    LGT SNOW  17  12  81 W9G17     29.89R WCI   5
WOODRUFF       LGT SNOW  17  12  81 W9G17     29.89R WCI   5
RHINELANDER    FLURRIES  16  11  80 W15       29.90R WCI   1
EAGLE RIVER    FLURRIES  15   9  76 W14       29.86S WCI   0
LAND O LAKES   LGT SNOW  16  11  82 W8        29.86R WCI   5
PHILLIPS       LGT SNOW  13  10  87 SW8G16    29.93R WCI   2
TOMAHAWK       FLURRIES  15   9  78 W10G17    29.94R WCI   2
MEDFORD        FLURRIES  14   8  76 W17       29.96S WCI  -2
MERRILL        FLURRIES  17  10  76 W17       29.96R WCI   1
$$

WIZ029-030-035-036-043>047-080600-
CENTRAL WISCONSIN

CITY           SKY/WX    TMP DP  RH WIND       PRES   REMARKS
WAUSAU         FLURRIES  17  10  74 W20G32    29.97R WCI   1
MOSINEE        LGT SNOW  18  14  86 W16       29.99S WCI   3
MARSHFIELD     FLURRIES  17  10  74 W14G23    30.00R WCI   3
STEVENS POINT  FLURRIES  17  10  73 W13G26    30.01S WCI   4
WAUPACA        CLOUDY    22  13  69 W13       30.03R WCI  10
WAUTOMA        FLURRIES  20  13  74 W14       30.05S WCI   7
WISC RAPIDS    CLOUDY    19  12  74 W9G21     30.04R WCI   8
CAMP DOUGLAS   FLURRIES  19  12  73 W15       30.07R WCI   5
$$

WIZ011>013-019>022-031-037>040-048>050-080600-
NORTHEAST WISCONSIN

CITY           SKY/WX    TMP DP  RH WIND       PRES   REMARKS
ANTIGO         FLURRIES  16  10  80 W16G25    29.93R WCI   0
SHAWANO        CLOUDY    23  13  66 W14       29.99S WCI  10
OCONTO         CLOUDY    22  12  65 W14G21    29.98R WCI   9
STURGEON BAY   CLOUDY    23  14  68 W15G25    29.96R WCI  10
GREEN BAY      CLOUDY    23  14  68 W17       30.00R WCI   9
MANITOWOC      FLURRIES  22  13  68 MISG      30.01S
APPLETON       CLOUDY    21  10  63 W15G22    30.00R WCI   8
CLINTONVILLE   CLOUDY    21  12  68 W14G22    30.00S WCI   8
OSHKOSH        CLOUDY    21  11  65 W10G22    30.03R WCI  10
$$

WIZ032>034-041-042-053>061-080600-
SOUTHWEST WISCONSIN

CITY           SKY/WX    TMP DP  RH WIND       PRES   REMARKS
LA CROSSE      CLOUDY    20   9  62 W18G28    30.15R WCI   5
SPARTA         FLURRIES  19  13  77 W8G18     30.10S WCI   9
VIROQUA        CLOUDY    17  10  72 W16G22    30.10R WCI   2
BOSCOBEL       LGT SNOW  21  13  71 W17G24    30.18R WCI   7
PRAIRIE DU CHI FLURRIES  21  12  67 W17G26    30.19R WCI   7
PLATTEVILLE    CLOUDY    22  17  80 W20G28    30.14R WCI   7
$$

WIZ056-057-062-063-064-067-068-080600-
SOUTH CENTRAL WISCONSIN

CITY           SKY/WX    TMP DP  RH WIND       PRES   REMARKS
REEDSBURG      FLURRIES  19  11  70 W16G24    30.09R WCI   5
BARABOO/DELLS  CLOUDY    19  10  68 W15G22    30.08R WCI   5
LONE ROCK      CLOUDY    22  12  65 W13       30.14R WCI  10
MINERAL POINT  FLURRIES  23  18  80 W18G25    30.11R WCI   9
MADISON        FLURRIES  21  11  65 W10G20    30.09R WCI  10
MIDDLETON      CLOUDY    22  15  72 W14       30.10R WCI  10
WATERTOWN      CLOUDY    21  14  73 W12G20    30.08R WCI   9
MONROE         CLOUDY    23  14  68 W24G36    30.10S WCI   7
JANESVILLE     CLOUDY    25  16  68 W20       30.11S WCI  11
$$

WIZ051-052-058>065-066-070>072-080600-
SOUTHEAST WISCONSIN

CITY           SKY/WX    TMP DP  RH WIND       PRES   REMARKS
MILWAUKEE      FLURRIES  23  13  65 W15G24    30.09R WCI  10
WAUKESHA       CLOUDY    19  12  73 W16G25    30.08R WCI   5
MILWAUKEE/TIMM FLURRIES  21  10  63 W18G26    30.08S WCI   6
RACINE         CLOUDY    23  12  62 W17G26    30.10S WCI   9
BURLINGTON     FLURRIES  22  14  72 W13G23    30.09S WCI  10
KENOSHA        CLOUDY    23  14  68 W23G30    30.09S WCI   7
FOND DU LAC    CLOUDY    21  11  65 W12       30.05R WCI   9
SHEBOYGAN      FLURRIES  21  12  68 W15G23    30.04R WCI   8
WEST BEND      FLURRIES  21  14  73 W12G23    30.05R WCI   9
JUNEAU         FLURRIES  19  12  72 W12G22    30.08R WCI   7
$$

LSZ147-162-080600-
LAKE SUPERIOR

STATION/POSITION TIME  TEMP    WIND        PRES    WAVE
                       AIR SEA DIR/SP/G            HT/PER
                 (UTC) (F)     (DEG/KT/KT) (MB)    (FT/S)
DEVILS ISLAND    0400   26     290/ 20/ 23 1012.6R
PORT WING        0430   25     270/ 19/ 25 1013.9S
SAXON HARBOR     0440   18     220/ 10/ 14 1013.5R
$$

LMZ867-665-643>646-080600-
LAKE MICHIGAN

STATION/POSITION TIME  TEMP    WIND        PRES    WAVE
                       AIR SEA DIR/SP/G            HT/PER
                 (UTC) (F)     (DEG/KT/KT) (MB)    (FT/S)
CHAMBERS ISLAND  0440   24     220/ 12/ 22 1013.5R
NORTHPORT PIER   0450   24     280/  9/ 19 1013.2S
SISTER BAY       0436   26     290/ 22/ 26   N/A
KEWAUNEE LAKESHO 0454   22     340/ 15/ 20 1015.0R
SHEBOYGAN LAKESH 0400   22     260/ 16/ 23 1017.9S
PORT WASHINGTON  0430   22     290/ 10/ 22 1019.0S
MILWAUKEE LAKESH 0500   23     280/ 13/ 15   N/A
KENOSHA   LAKESH 0400   23     270/ 16/ 25 1019.3
$$

TC  - TEMPERATURE IN CELSIUS
VSB - VISIBILITY IN STATUTE MILES
WCI - WIND CHILL INDEX
HX  - HEAT INDEX





USA.gov is the U.S. government's official web portal to all federal, state and local government web resources and services.